TimeCST,TemperatureF,Dew PointF,Humidity,Sea Level PressureIn,VisibilityMPH,Wind Direction,Wind SpeedMPH,Gust SpeedMPH,PrecipitationIn,Events,Conditions,WindDirDegrees,DateUTC
12:53 AM,10.0,7.0,87,30.27,4.0,South,3.5,-,N/A,,Clear,190,2013-01-07 06:53:00
1:53 AM,10.0,6.1,84,30.27,7.0,South,9.2,-,N/A,,Clear,190,2013-01-07 07:53:00
2:53 AM,9.0,3.9,80,30.26,9.0,South,9.2,-,N/A,,Clear,180,2013-01-07 08:53:00
3:53 AM,10.9,5.0,77,30.23,10.0,South,8.1,-,N/A,,Clear,190,2013-01-07 09:53:00
4:53 AM,17.1,8.1,68,30.21,10.0,South,12.7,-,N/A,,Clear,190,2013-01-07 10:53:00
5:53 AM,19.0,10.9,71,30.18,10.0,SSW,18.4,-,N/A,,Clear,200,2013-01-07 11:53:00
6:53 AM,19.9,10.9,68,30.16,10.0,SSW,18.4,-,N/A,,Clear,200,2013-01-07 12:53:00
7:53 AM,24.1,12.9,62,30.15,10.0,SSW,18.4,26.5,N/A,,Clear,200,2013-01-07 13:53:00
9:53 AM,25.0,15.1,66,30.14,10.0,SSW,17.3,27.6,N/A,,Clear,200,2013-01-07 15:53:00
10:53 AM,27.0,16.0,63,30.11,10.0,South,20.7,28.8,N/A,,Clear,190,2013-01-07 16:53:00
11:53 AM,30.0,18.0,61,30.05,10.0,SSW,15.0,25.3,N/A,,Clear,200,2013-01-07 17:53:00
1:53 PM,33.1,19.9,59,30.02,10.0,SW,16.1,27.6,0.04,,Clear,220,2013-01-07 19:53:00
2:53 PM,33.1,21.0,61,30.03,10.0,SSW,18.4,25.3,0.02,,Clear,210,2013-01-07 20:53:00
3:53 PM,32.0,21.0,64,30.01,10.0,SW,18.4,27.6,0.01,,Clear,220,2013-01-07 21:53:00
5:53 PM,32.0,21.9,66,30.04,10.0,SSW,12.7,-,N/A,,Clear,210,2013-01-07 23:53:00
6:53 PM,32.0,23.0,69,30.03,10.0,SSW,15.0,20.7,N/A,,Clear,210,2013-01-08 00:53:00
7:53 PM,32.0,23.0,69,30.02,10.0,SSW,12.7,19.6,N/A,,Clear,210,2013-01-08 01:53:00
8:53 PM,30.9,23.0,72,30.04,10.0,SSW,10.4,-,N/A,,Clear,210,2013-01-08 02:53:00
9:53 PM,30.9,23.0,72,30.04,10.0,SSW,11.5,-,N/A,,Clear,210,2013-01-08 03:53:00
10:53 PM,30.9,23.0,72,30.04,10.0,SW,11.5,-,N/A,,Clear,220,2013-01-08 04:53:00
11:53 PM,30.0,23.0,75,30.05,10.0,SW,9.2,-,N/A,,Clear,220,2013-01-08 05:53:00